Terminal Aerodrome Forecast
Issued by NWS Sterling, VA

Current Version | Previous Version | Graphics & Text | Print | Product List | Glossary On
Versions: 1 2 3 4 5 6 7 8 9 10 11 12 13 14 15 16 17 18 19 20 21 22 23 24 25 26 27 28 29 30 31
242
FTUS41 KLWX 290522
TAFIAD
TAF
KIAD 290522Z 2906/3012 35006KT 5SM -SHRA BR SCT015 OVC025
     FM290900 35008KT P6SM OVC025
     FM291100 35008G15KT P6SM BKN025
     FM291300 35009G15KT P6SM SCT035
     FM291500 35009KT P6SM FEW040
     FM300600 03006KT P6SM SCT050=

USA.gov is the U.S. government's official web portal to all federal, state and local government web resources and services.